Weather in Gyeryong

South Korea     36°17′18″N   127°14′30″E
temp.,
°C
wind,
m/s
gust,
m/s
humid.,
%
clouds,
%
prec.,
mm/h
press.,
hPa
HPBL,
m
13 april, tue
tue1300:00+13wsw41198100 2.8 1010654
03:00+11sw51098100 3.2 1010746
06:00+10sw4997100 0.3 1011505
09:00+10w3792100 0.4 1014678
12:00+13w796532 0.1 10141214
15:00+12wnw79380 0.1 10141286
18:00+7w67480 0.0 1016987
21:00+4w3762100 0.0 1018390
14 april, wed
wed1400:00+3wsw236892 0.0 101986
03:00+2ssw227399 0.0 101939
06:00+1sw22769 0.0 102024
09:00+8nw25410 0.0 1021862
12:00+13nw48240 0.0 10201638
15:00+14wnw68240 0.0 10191683
18:00+10w47370 0.0 1020778
21:00+5ssw24670 0.0 102187
15 april, thu
thu1500:00+4s22702 0.0 102124
03:00+4sse117398 0.0 102110
06:00+3sse117847 0.0 102110
09:00+10ese1153100 0.0 1021363
12:00+15nw1131100 0.0 1020975
15:00+17sw1127100 0.0 10171378
18:00+15w24370 0.0 1016155
21:00+9ssw236296 0.0 101865
16 april, fri
fri1600:00+7ssw1168100 0.0 101710
03:00
06:00+8ssw1257100 0.1 101365
09:00+9ssw41376100 2.3 1014964
12:00+15wsw71048100 0.1 10141696
15:00+15wsw7103599 0.1 10141528
18:00+11w4734100 0.0 1015623
21:00+7ssw225353 0.0 101621
17 april, sat
sat1700:00+5sw226194 0.0 101813
03:00+5s237023 0.0 101553
06:00+4s22650 0.0 101625
09:00+11wsw47610 0.0 1018944
12:00+15w711220 0.0 10173156
15:00+15wnw812210 0.0 10173113
18:00+11wnw512350 0.0 10181607
21:00+6wsw25570 0.0 102099